Regional Weather Roundup
Issued by NWS

Home | Current Version | Previous Version | Text Only | Print | Product List | Glossary On
Versions: 1 2 3 4 5 6 7 8 9 10 11 12 13 14 15 16 17 18 19 20 21 22 23 24 25 26 27 28 29 30 31 32 33 34 35 36 37 38 39 40 41 42 43 44 45 46 47 48 49 50
000
ASUS43 KMPX 202110
RWRMN
WEATHER ROUNDUP FOR MINNESOTA
NATIONAL WEATHER SERVICE TWIN CITIES/CHANHASSEN MN
300 PM CST MON NOV 20 2017


NOTE: "FAIR" INDICATES FEW OR NO CLOUDS BELOW 12,000 FEET WITH NO
SIGNIFICANT WEATHER AND/OR OBSTRUCTIONS TO VISIBILITY. N/A MEANS
CURRENT SKY AND/OR WEATHER CONDITIONS ARE NOT AVAILABLE.

MNZ060>063-068>070-202200-
   Twin Cities Metro

CITY           SKY/WX    TMP DP  RH WIND       PRES   REMARKS
TWIN CITIES    CLOUDY    46  31  55 SW7       29.46S
ST PAUL        CLOUDY    45  31  58 S5        29.47F
CRYSTAL        CLOUDY    44  27  51 S9        29.44S
BLAINE         CLOUDY    46  30  53 S13       29.44S
LAKEVILLE        N/A     45  30  57 CALM      29.46R
EDEN PRAIRIE   CLOUDY    46  30  53 SW10      29.45R
SOUTH ST PAUL  CLOUDY    46  30  54 S5        29.46R
LAKE ELMO      FAIR      45  32  61 S9        29.47R
$$
MNZ001>005-007-008-013>017-022>024-027-028-202200-
   Northwest Minnesota

CITY           SKY/WX    TMP DP  RH WIND       PRES   REMARKS
BEMIDJI        CLOUDY    43  25  49 SW10      29.26F
HALLOCK        CLOUDY    39  30  70 W14       29.21S
ROSEAU         CLOUDY    37  30  75 SW12      29.20S
WARROAD        CLOUDY    37  30  75 SW12      29.19R
THIEF RVR FALL CLOUDY    40  28  62 SW18      29.25F
CROOKSTON      CLOUDY    43  30  61 SW9       29.29R
FOSSTON        CLOUDY    41  27  56 SW16      29.29S
DETROIT LAKES  CLOUDY    45  27  49 W10       29.36R
MOORHEAD       CLOUDY    52  25  35 W13       29.36R
PARK RAPIDS    CLOUDY    43  27  53 W10       29.31F
MAHNOMEN       FAIR      44  28  52 SW14      29.31S
$$
MNZ006-009>011-018-025>026-202200-
   North Central Minnesota

CITY           SKY/WX    TMP DP  RH WIND       PRES   REMARKS
BAUDETTE       CLOUDY    40  27  59 S10       29.16F
FLAG ISLAND    CLOUDY    36  28  75 S6        29.16F
INTL FALLS     CLOUDY    41  25  53 S8G17     29.21F
WASKISH        MOSUNNY   43  27  52 SW7       29.22F
BIG FORK       CLOUDY    41  28  60 S7        29.24F
LONGVILLE      CLOUDY    43  27  52 SW6       29.30S
GRAND RAPIDS   CLOUDY    41  28  60 S7        29.31F
CRANE LAKE     CLOUDY    37  27  65 S5        29.26F
ORR            CLOUDY    39  25  56 S7        29.23F
COOK           CLOUDY    41  27  56 S7        29.27F
WALKER         FAIR      43  25  50 SW8       29.27F
$$
MNZ012-019>021-037-202200-
   Northeast Minnesota

CITY           SKY/WX    TMP DP  RH WIND       PRES   REMARKS
DULUTH         CLOUDY    33  28  81 S10       29.34F WCI  25
ELY            CLOUDY    39  27  60 S8        29.28F
HIBBING        CLOUDY    40  26  57 S7        29.28F
EVELETH        CLOUDY    37  25  60 S8        29.31F
DULUTH HARBOR  CLOUDY    36  32  87 CALM      29.38F
TWO HARBORS    MOSUNNY   37  30  75 CALM      29.34F
SILVER BAY     CLOUDY    34  28  80 CALM      29.34F
GRAND MARAIS     N/A     36  31  82 E5        29.39F
G MARAIS ARPRT CLOUDY    28  25  86 SE3       29.35F
$$
MNZ029>031-032-039>041-046>048-054>057-064-202200-
   West Central Minnesota

CITY           SKY/WX    TMP DP  RH WIND       PRES   REMARKS
FERGUS FALLS   CLOUDY    45  27  49 W9        29.39R
WHEATON        CLOUDY    52  19  28 W12       29.40S
MORRIS         CLOUDY    48  30  49 SW6       29.38F
ALEXANDRIA     CLOUDY    42  29  59 SW12      29.37F
ELBOW LAKE     FAIR      44  31  61 W7        29.38F
WADENA         CLOUDY    43  27  52 W10       29.34R
GLENWOOD       CLOUDY    45  28  53 SW10      29.39F
APPLETON       CLOUDY    54  25  32 W9        29.41R
BENSON         MOSUNNY   52  28  40 W7        29.42S
ORTONVILLE     CLOUDY    52  23  32 MISG      29.41R
MADISON        CLOUDY    57  25  28 W15       29.42S
WILLMAR        FAIR      46  34  61 SW5       29.43F
$$
MNZ033>034-036-042>043-049>051-058-059-202200-
   Central Minnesota

CITY           SKY/WX    TMP DP  RH WIND       PRES   REMARKS
ST CLOUD       CLOUDY    39  30  70 S8        29.41S
SAUK CENTRE    FAIR      41  30  66 SW8       29.38F
PAYNESVILLE    CLOUDY    42  32  67 SW10      29.42R
AITKIN         CLOUDY    39  27  60 S7        29.32F
PINE RIVER     CLOUDY    39  27  60 S7        29.36F
BRAINERD       CLOUDY    40  28  62 S10       29.34F
STAPLES        CLOUDY    41  27  56 S8        29.33F
LONG PRAIRIE   FAIR      41  30  65 S10       29.38F
LITTLE FALLS   CLOUDY    37  25  60 S5        29.39S
LITCHFIELD     CLOUDY    46  34  61 CALM      29.42F
BUFFALO        CLOUDY    41  30  63 S7        29.43F
MAPLE LAKE     CLOUDY    41  32  70 S8        29.43F
HUTCHINSON     CLOUDY    49  32  52 S7        29.44F
$$
MNZ037-044-045-052-053-202200-
   East Central Minnesota

CITY           SKY/WX    TMP DP  RH WIND       PRES   REMARKS
PRINCETON      CLOUDY    41  30  65 S6        29.41F
MORA           CLOUDY    37  28  70 SW9       29.41F
CAMBRIDGE      CLOUDY    43  28  56 S9        29.41F
RUSH CITY      CLOUDY    40  29  65 S6        29.42F
MOOSE LAKE     CLOUDY    37  30  75 S8        29.34F
HINCKLEY       FAIR      39  30  70 S12       29.40F
CLOQUET        CLOUDY    36  27  69 SE5       29.34F
MCGREGOR       CLOUDY    41  30  65 SW10G16   29.35S
$$
MNZ071>073-080-081-089-090-097-098-202200-
   Southwest Minnesota

CITY           SKY/WX    TMP DP  RH WIND       PRES   REMARKS
MONTEVIDEO     MOSUNNY   52  28  40 W7        29.42S
GRANITE FALLS  MOSUNNY   53  30  40 SW12      29.45R
CANBY          MOSUNNY   56  23  28 SW18G26   29.44S
MARSHALL       MOSUNNY   52  27  38 W16       29.45S
REDWOOD FALLS  MOSUNNY   50  26  39 SW15      29.44F
OLIVIA         PTSUNNY   50  30  46 SW13      29.42S
PIPESTONE      CLOUDY    45  27  49 SW12      29.50S
WINDOM         CLOUDY    48  27  43 SW16      29.49S
WORTHINGTON    CLOUDY    46  26  45 SW18      29.51R
JACKSON        CLOUDY    46  28  49 SW17      29.51S
SLAYTON        CLOUDY    46  27  46 SW15      29.49F
$$
MNZ065>067-074>077-082>085-091>093-202200-
   South Central Minnesota

CITY           SKY/WX    TMP DP  RH WIND       PRES   REMARKS
MANKATO        CLOUDY    49  30  48 SW14G22   29.49R
NEW ULM        MOSUNNY   48  27  43 SW12G18   29.47S
ST JAMES       CLOUDY    50  27  40 SW9       29.51R
FAIRMONT       CLOUDY    48  29  47 SW15      29.51R
GLENCOE        CLOUDY    49  32  52 S8        29.44F
FARIBAULT      CLOUDY    48  32  53 S9        29.48S
OWATONNA       CLOUDY    50  34  53 S18       29.48F
WASECA         CLOUDY    50  32  50 SW15      29.50S
ALBERT LEA     CLOUDY    50  28  43 SW9       29.50F
$$
MNZ078>079-086>088-094>096-202200-
   Southeast Minnesota

CITY           SKY/WX    TMP DP  RH WIND       PRES   REMARKS
ROCHESTER      MOSUNNY   49  34  56 SW18      29.50F
RED WING       CLOUDY    48  28  46 S3        29.46F
STANTON        CLOUDY    48  33  54 SW17      29.45F
DODGE CENTER   CLOUDY    50  32  50 S16       29.48F
WINONA         MOSUNNY   52  32  46 S5        29.52S
AUSTIN         MOSUNNY   50  30  46 SW13      29.51S
PRESTON        CLOUDY    49  31  51 S14G20    29.52F
$$
ABBREVIATIONS USED IN REMARKS
   TC - TEMPERATURES IN CELSIUS
  WCI - WIND CHILL INDEX
   HX - HEAT INDEX
  VSB - VISIBILITY
$$




USA.gov is the U.S. government's official web portal to all federal, state and local government web resources and services.